TimeMST,TemperatureF,Dew PointF,Humidity,Sea Level PressureIn,VisibilityMPH,Wind Direction,Wind SpeedMPH,Gust SpeedMPH,PrecipitationIn,Events,Conditions,WindDirDegrees,DateUTC
12:53 AM,50.0,36.0,59,29.73,10.0,SE,11.5,-,N/A,,Mostly Cloudy,140,2012-12-02 07:53:00
1:53 AM,51.1,35.1,54,29.69,10.0,SE,15.0,-,0.01,,Overcast,130,2012-12-02 08:53:00
2:53 AM,51.1,35.1,54,29.66,10.0,SSE,12.7,-,N/A,,Overcast,150,2012-12-02 09:53:00
3:53 AM,52.0,34.0,50,29.64,10.0,SSE,20.7,32.2,N/A,,Overcast,150,2012-12-02 10:53:00
5:53 AM,51.1,35.1,54,29.59,10.0,SSE,19.6,-,N/A,,Overcast,150,2012-12-02 12:53:00
6:53 AM,51.1,35.1,54,29.56,10.0,SSE,20.7,29.9,N/A,,Clear,160,2012-12-02 13:53:00
7:53 AM,51.1,35.1,54,29.55,10.0,SSE,21.9,31.1,N/A,,Clear,160,2012-12-02 14:53:00
8:53 AM,52.0,35.1,53,29.54,10.0,SSE,24.2,29.9,N/A,,Overcast,160,2012-12-02 15:53:00
9:53 AM,54.0,34.0,47,29.53,10.0,SSE,31.1,41.4,N/A,,Overcast,150,2012-12-02 16:53:00
10:53 AM,53.1,35.1,50,29.53,10.0,SSE,23.0,33.4,N/A,,Overcast,150,2012-12-02 17:53:00
11:53 AM,53.1,36.0,52,29.50,10.0,SSE,24.2,31.1,N/A,,Overcast,160,2012-12-02 18:53:00
12:53 PM,55.0,37.9,53,29.48,10.0,South,21.9,32.2,N/A,,Overcast,180,2012-12-02 19:53:00
1:53 PM,51.1,43.0,74,29.53,9.0,WSW,27.6,35.7,0.01,Rain,Light Rain,250,2012-12-02 20:53:00
2:53 PM,45.0,41.0,86,29.61,7.0,SW,27.6,43.7,0.09,Rain,Rain,230,2012-12-02 21:53:00
3:27 PM,44.6,41.0,87,29.65,10.0,WSW,25.3,29.9,0.01,Rain,Light Rain,250,2012-12-02 22:27:00
3:53 PM,42.1,39.0,89,29.67,10.0,West,20.7,26.5,0.04,Rain,Light Rain,260,2012-12-02 22:53:00
4:19 PM,39.2,37.4,93,29.72,7.0,West,19.6,26.5,0.01,Rain,Light Rain,260,2012-12-02 23:19:00
4:29 PM,39.2,37.4,93,29.71,7.0,WSW,13.8,24.2,0.01,Rain,Light Rain,250,2012-12-02 23:29:00
4:40 PM,39.2,37.4,93,29.71,10.0,WSW,11.5,20.7,0.02,,Overcast,250,2012-12-02 23:40:00
4:53 PM,39.9,37.9,93,29.72,10.0,West,10.4,-,0.02,,Overcast,260,2012-12-02 23:53:00
5:05 PM,41.0,39.2,93,29.75,10.0,WSW,13.8,-,N/A,,Overcast,250,2012-12-03 00:05:00
5:23 PM,41.0,37.4,87,29.76,10.0,WSW,15.0,23.0,N/A,,Overcast,250,2012-12-03 00:23:00
5:53 PM,41.0,30.9,67,29.76,10.0,SW,20.7,28.8,N/A,,Overcast,230,2012-12-03 00:53:00
6:53 PM,39.0,32.0,76,29.83,10.0,WSW,16.1,-,N/A,,Scattered Clouds,240,2012-12-03 01:53:00
7:53 PM,37.0,30.9,79,29.89,10.0,SW,11.5,-,N/A,,Clear,220,2012-12-03 02:53:00
8:53 PM,36.0,28.9,76,29.94,10.0,South,5.8,-,N/A,,Clear,190,2012-12-03 03:53:00
9:53 PM,35.1,28.9,78,29.97,10.0,South,8.1,-,N/A,,Clear,190,2012-12-03 04:53:00
10:53 PM,33.1,28.9,85,30.02,10.0,SSE,4.6,-,N/A,,Clear,160,2012-12-03 05:53:00
11:53 PM,34.0,28.9,82,30.06,10.0,South,5.8,-,N/A,,Clear,170,2012-12-03 06:53:00